RH
40 48 47 48 42 48 52 43 47 41 49 45 44 50 56 55 56 58 61 56 55 56 58 60 65 67 71 73 77 81 86 90 90 91 92 92 96 99 100 100 100 97 98 100
65 50 49 62 54 46 45 41 45 40 45 44 53 55 59 60 63 63 62 60 58 56 60 65 69 72 74 79 82 86 92 91 92 91 91 94 97 99 100 100 100 100 97 98
55 55 59 56 52 51 58 54 44 55 51 57 58 56 62 67 67 70 68 65 61 65 68 70 75 77 83 85 88 92 92 92 92 92 97 97 97 97 99 99 100 99 98 98
75 51 50 47 49 48 49 53 54 48 51 56 54 60 69 74 80 76 73 68 71 74 76 77 79 82 86 91 92 92 95 94 92 95 98 98 97 97 98 100 100 98 98 98
65 82 48 62 56 54 50 44 50 51 52 59 68 72 62 61 73 75 82 79 77 76 76 79 81 85 94 92 93 96 96 95 98 99 99 99 97 98 98 98 100 99 98 97
78 76 57 41 55 39 38 60 49 46 56 75 76 84 56 66 68 80 76 75 77 75 80 81 83 93 94 95 98 98 98 100 100 100 99 99 99 97 99 100 98 98 97 98
80 94 75 51 52 44 42 33 60 57 61 87 88 72 66 75 78 73 74 76 78 79 83 86 93 89 98 100 99 97 100 100 100 100 99 98 98 98 97 98 98 97 98 96
89 94 86 54 55 58 62 61 58 76 71 88 77 73 78 77 74 75 81 82 82 86 88 91 86 93 100 100 95 98 100 100 100 99 97 98 99 98 97 98 97 98 97 96
71 61 52 45 48 66 74 77 80 81 73 81 87 80 78 80 87 86 85 87 86 87 94 85 85 94 100 93 97 100 100 100 100 97 95 94 95 98 97 97 96 96 96 96
63 54 52 51 52 60 60 70 71 81 84 87 90 83 90 91 88 88 89 90 87 93 93 93 88 87 91 99 99 100 100 100 99 96 94 94 96 98 97 97 97 93 92 92
66 62 57 55 59 66 68 68 73 77 81 87 95 91 93 96 93 90 92 88 94 91 94 93 91 88 87 97 97 100 100 99 96 100 95 97 95 93 95 92 95 98 97 98
56 51 74 66 58 66 80 78 80 86 91 79 86 96 92 93 87 92 93 94 90 92 94 91 95 89 89 97 100 99 100 96 99 97 98 97 98 93 85 83 82 81 90 95
67 75 68 68 70 70 80 80 84 86 83 96 85 83 88 92 92 92 87 91 94 96 95 95 92 92 91 98 100 100 100 100 99 100 98 100 98 96 93 86 83 83 83 82
78 76 75 69 79 82 78 76 75 78 82 86 85 86 91 99 94 92 94 95 95 97 93 91 92 89 94 98 100 100 99 100 100 99 99 100 99 100 97 95 94 90 85 82
74 64 75 79 85 87 81 85 90 88 86 86 85 90 97 99 96 94 92 92 94 93 89 92 92 88 96 97 100 100 97 100 100 100 100 99 100 100 98 97 96 94 92 87
76 74 77 76 87 90 89 94 95 93 89 92 90 93 95 96 96 93 90 92 99 99 92 92 93 92 97 96 100 98 98 99 100 100 98 100 100 98 97 96 97 95 96 97
89 92 92 89 87 94 94 93 89 92 91 94 91 93 96 96 95 90 90 93 95 93 89 92 97 92 97 98 98 100 94 87 100 92 96 100 100 98 100 98 98 97 97 100
82 83 80 80 87 92 95 88 87 88 94 88 94 98 98 98 99 96 95 96 91 84 81 94 91 97 90 92 98 98 89 90 91 96 96 98 99 97 100 100 99 98 97 99
71 80 76 72 73 82 87 89 86 84 89 96 100 98 97 96 99 99 97 96 92 94 79 93 96 88 94 93 94 86 90 92 92 93 94 100 94 97 100 100 99 99 99 99
82 76 78 84 78 77 88 83 84 91 96 96 97 99 96 93 99 99 96 96 89 92 95 98 95 76 97 98 100 85 89 93 95 95 96 100 98 100 100 100 100 100 99 98
90 86 86 86 91 87 81 85 92 94 91 95 97 96 96 94 95 100 97 100 76 91 97 98 80 80 96 99 81 85 89 94 95 96 96 95 97 97 100 100 100 100 99 99
96 92 91 90 90 90 91 92 93 92 92 95 96 97 98 93 96 96 94 98 86 91 99 92 80 90 98 88 80 88 91 94 95 94 95 97 100 100 100 100 100 100 98 99
94 90 90 93 92 89 86 84 86 92 96 96 96 96 98 96 99 100 98 87 96 91 97 86 92 92 98 86 85 91 94 94 96 96 95 98 99 98 99 98 98 98 97 96
97 93 90 94 94 91 93 88 95 96 96 96 94 95 97 97 91 95 98 100 99 99 98 99 95 92 100 88 91 93 94 94 96 97 96 99 97 97 97 97 96 97 96 96
90 94 96 95 92 90 88 97 97 96 96 93 91 93 97 100 100 93 98 96 99 98 98 92 100 100 97 94 97 94 95 95 100 100 95 97 96 96 96 96 96 96 96 98
97 93 89 83 81 86 92 98 95 94 95 95 92 92 93 98 99 100 97 99 98 98 96 95 97 100 97 98 99 88 94 95 95 94 100 96 96 96 96 96 96 96 97 98
95 98 93 92 90 91 95 97 99 93 94 98 94 90 95 98 96 99 100 96 96 96 96 96 96 100 100 100 83 86 93 95 98 100 97 96 96 97 96 97 98 97 96 96
Wind_Speed
7 7 7 8 8 15 20 20 10 4 9 6 5 6 5 6 4 5 6 5 6 8 12 18 20 23 24 24 26 29 30 31 31 32 32 33 33 34 35 34 33 34 33 32
4 10 9 15 15 20 20 20 22 22 26 1 4 4 3 4 5 7 4 7 8 10 15 17 18 22 24 26 29 30 30 31 32 31 31 33 33 33 34 34 34 32 32 31
4 2 5 10 19 18 8 6 17 16 10 5 4 5 3 6 6 6 4 7 9 10 15 18 21 23 24 27 30 30 30 31 31 31 32 33 33 33 32 32 33 32 31 30
3 2 4 3 1 1 14 5 8 2 4 5 3 3 5 6 5 4 6 10 10 14 18 20 23 26 26 26 28 28 29 30 30 31 32 33 33 32 33 31 31 30 29 28
3 3 9 1 4 6 6 6 8 7 5 3 3 4 4 3 5 3 5 10 14 19 21 24 25 26 25 27 27 26 27 29 32 32 33 33 33 33 30 29 29 29 27 26
3 4 6 3 3 3 4 4 4 6 6 5 3 1 3 4 3 6 11 13 17 20 21 22 24 24 23 25 25 26 27 31 31 32 31 33 33 31 29 29 28 28 27 23
10 4 9 4 6 4 3 4 6 6 5 6 4 4 3 4 5 9 9 14 16 17 19 21 21 22 22 23 23 27 30 30 32 31 31 30 29 30 28 29 27 27 24 25
6 5 10 7 5 7 4 3 6 4 5 5 5 3 4 4 4 8 11 13 15 15 17 20 21 20 21 22 27 31 30 32 30 31 30 29 27 27 27 26 26 21 23 23
10 5 1 16 1 3 4 6 4 5 4 5 4 4 3 4 5 8 12 14 16 15 18 22 21 19 21 28 29 30 31 30 30 29 31 26 25 25 24 23 24 18 19 21
1 2 5 13 2 5 4 4 5 4 5 5 4 4 3 4 5 8 12 13 14 17 16 20 23 23 24 24 27 29 28 28 27 28 27 27 25 23 22 22 21 20 19 22
5 4 2 6 8 7 6 6 5 5 5 5 4 4 4 3 5 10 12 14 15 15 16 19 23 24 24 24 26 27 26 25 26 24 25 25 23 22 23 22 24 21 21 23
6 5 4 4 7 8 8 6 6 6 3 4 6 4 4 5 9 11 15 14 15 16 17 22 22 24 24 25 25 25 25 24 24 24 24 23 22 26 23 23 23 22 22 23
3 4 3 4 6 5 6 5 6 7 5 4 3 4 3 3 8 11 14 14 15 18 19 21 21 23 22 25 23 24 23 24 22 24 22 22 22 21 23 30 24 22 22 24
4 6 3 2 4 6 7 9 7 6 5 5 5 3 4 6 10 11 12 15 15 16 20 19 20 22 22 25 22 23 26 21 22 22 21 22 21 21 20 20 21 25 26 24
6 2 3 7 7 6 7 7 4 4 4 4 4 5 5 8 10 13 14 14 15 17 17 18 20 22 22 24 21 24 25 23 23 22 22 20 20 20 20 20 19 20 23 25
7 5 6 6 7 7 5 4 4 3 3 4 4 5 7 8 11 12 12 13 15 17 20 19 19 21 21 24 23 22 26 21 19 21 23 22 19 19 19 19 19 20 20 23
8 3 3 3 6 6 7 5 6 5 4 5 7 6 7 8 10 11 13 14 16 17 16 14 18 20 20 21 22 19 26 25 20 22 23 20 18 19 18 19 19 20 21 21
3 4 6 5 7 6 4 9 9 8 6 5 5 6 8 8 9 13 14 16 17 15 13 15 17 19 21 17 17 22 24 22 21 21 22 21 20 22 18 19 19 20 23 24
6 9 10 8 9 10 9 10 10 6 5 5 6 9 8 9 10 11 13 15 15 15 15 19 17 20 18 14 17 23 22 21 21 21 21 19 25 24 21 21 21 21 22 22
7 11 11 10 9 9 8 6 6 6 5 6 7 8 9 8 7 9 11 15 14 11 17 16 22 18 17 10 15 20 20 19 20 21 21 21 24 24 25 23 22 22 22 21
8 12 10 11 9 7 6 5 6 7 5 6 7 8 8 9 7 8 10 13 12 12 17 14 20 19 16 11 19 19 19 19 19 20 21 24 26 28 25 24 23 22 22 22
10 10 11 10 9 7 5 5 6 6 7 7 7 7 7 7 6 8 9 10 13 13 13 18 15 18 7 17 19 18 19 19 19 20 21 24 25 26 26 24 24 24 24 24
12 10 11 10 8 5 5 6 7 8 8 7 6 5 7 8 8 8 10 8 13 16 12 18 16 16 14 19 18 19 19 20 19 19 21 23 25 27 26 26 24 24 25 24
11 10 8 8 6 5 4 6 6 6 6 5 6 5 7 8 9 7 6 10 11 13 14 17 16 16 15 18 18 21 20 20 19 20 21 21 27 29 28 27 28 27 27 24
10 10 9 9 7 7 6 5 6 6 6 6 6 5 6 7 8 9 11 11 11 12 15 16 15 14 16 17 18 20 19 19 18 18 18 23 27 30 30 29 29 26 26 26
10 10 8 7 5 4 6 6 7 5 6 6 5 6 5 5 7 8 9 9 10 10 14 15 15 14 15 17 18 18 18 18 18 17 18 21 25 29 31 32 33 33 33 32
7 5 6 4 5 7 8 9 8 9 7 7 8 5 6 5 7 7 8 9 9 10 13 13 13 13 14 16 18 18 17 17 16 15 17 20 24 28 31 32 33 33 34 33
Wind_Direction
264 252 215 209 205 203 210 219 215 237 222 228 212 230 214 211 239 274 270 279 305 312 310 316 314 316 319 318 317 320 317 313 310 310 309 307 305 302 300 296 290 286 280 275
267 250 260 258 233 237 228 231 247 260 274 277 128 131 198 244 269 273 277 310 312 314 315 313 313 316 318 318 318 321 315 312 312 312 312 310 307 304 301 298 294 289 281 273
275 2 321 281 239 217 199 203 226 240 253 157 188 218 232 248 248 263 298 312 317 312 311 311 312 315 314 316 318 317 315 313 314 315 313 312 310 308 305 302 299 293 286 278
279 321 265 248 202 328 216 231 213 158 175 188 193 229 237 243 228 213 307 317 312 309 308 310 315 318 321 319 317 315 313 314 317 317 314 314 314 312 311 309 305 300 292 284
252 238 305 301 185 174 175 255 192 189 161 168 143 306 298 179 174 219 260 297 303 312 310 314 320 327 321 318 318 315 314 317 318 318 315 315 315 316 318 320 317 316 311 298
145 243 251 222 163 142 107 276 177 147 161 170 130 17 258 184 238 292 314 315 316 316 315 318 328 326 321 315 315 313 317 317 317 318 315 315 316 324 326 326 323 324 321 319
217 252 281 178 157 159 110 226 156 165 163 156 181 201 193 290 302 311 307 316 319 317 314 317 320 327 316 312 310 315 317 318 320 321 319 319 321 328 331 331 330 331 337 339
186 221 267 137 73 178 196 58 148 163 178 186 222 265 273 289 293 309 312 316 319 313 313 318 331 334 317 312 322 327 323 322 323 325 323 326 329 329 334 334 333 333 339 335
198 216 69 187 110 176 144 146 184 163 187 176 199 235 275 285 295 303 310 311 321 319 315 327 338 337 318 326 332 326 325 323 323 325 327 334 333 331 335 335 331 340 338 335
27 189 202 203 168 153 166 138 145 156 154 158 198 240 258 282 293 309 313 315 323 322 319 321 335 336 336 329 332 330 321 323 326 327 336 337 336 336 337 335 337 349 344 341
263 246 288 238 202 170 159 139 136 142 156 191 184 245 243 259 295 304 308 317 325 317 318 317 331 336 340 339 340 326 324 326 328 329 334 335 336 338 340 342 340 346 346 345
223 189 157 232 183 150 151 169 165 149 169 199 200 230 251 281 300 305 310 323 324 324 321 326 328 333 342 346 340 332 324 330 328 333 333 336 335 334 343 348 350 351 352 354
230 137 102 74 112 122 147 158 154 173 177 177 224 249 254 278 301 312 321 324 326 323 323 322 327 331 343 346 344 334 325 326 332 332 333 334 335 336 335 341 352 356 357 356
155 115 57 205 180 151 139 153 165 162 183 208 239 252 277 281 304 314 319 325 324 321 319 326 327 331 344 345 341 336 340 334 333 332 333 333 333 331 335 337 336 339 349 354
170 41 148 120 111 130 132 137 137 176 194 223 238 259 268 289 301 312 325 328 324 321 327 330 328 334 343 346 340 340 345 335 333 335 337 337 335 334 335 335 333 332 337 345
138 102 112 120 143 153 152 158 164 209 204 214 235 255 279 292 302 316 329 336 334 321 326 327 326 336 341 345 339 340 344 340 338 335 344 341 336 337 335 335 333 334 335 335
123 148 139 151 182 183 194 183 187 194 187 200 244 269 286 301 310 323 334 338 332 324 326 326 330 336 342 342 338 340 343 342 340 342 346 341 335 336 333 332 329 330 329 334
114 121 141 160 175 175 179 193 195 197 204 241 239 265 283 294 302 319 330 333 334 332 340 341 337 339 337 340 342 341 342 342 343 342 344 347 338 341 335 331 329 328 328 332
128 127 141 139 152 162 168 182 194 204 216 229 249 264 283 296 313 320 328 330 333 329 335 341 341 333 341 342 342 338 343 344 344 345 347 343 345 348 338 335 330 330 330 329
116 130 143 134 132 145 157 159 174 198 227 244 255 266 286 306 319 325 330 324 326 326 329 338 331 333 344 339 344 344 346 347 346 347 349 340 348 337 341 337 335 332 331 331
146 157 154 153 159 167 155 170 198 223 239 243 251 275 290 306 320 324 326 324 341 342 338 331 337 333 339 343 345 347 350 350 349 350 349 349 347 346 336 333 332 331 330 331
159 160 158 159 161 167 190 212 228 246 253 257 270 278 285 303 321 318 317 301 332 334 327 336 341 339 25 349 347 350 354 354 352 351 350 350 348 338 332 332 330 331 333 338
159 159 161 169 175 183 202 222 235 244 254 260 267 273 281 303 310 300 308 338 329 329 337 340 340 338 350 344 348 354 355 354 353 351 350 348 344 341 336 333 330 335 338 345
143 151 152 167 175 176 208 239 232 241 248 263 277 281 290 304 312 307 306 314 317 321 333 340 338 338 345 343 350 353 352 353 353 352 346 345 351 348 348 346 343 346 348 342
150 153 156 166 182 218 237 228 236 239 247 269 282 286 283 290 279 306 315 318 321 323 324 336 337 340 338 349 350 347 348 350 352 340 348 351 350 354 356 355 353 347 345 358
163 171 185 197 219 242 236 227 235 238 250 260 275 289 285 285 290 295 309 316 313 323 324 335 343 340 343 348 341 344 347 349 349 353 346 348 352 356 359 1 1 1 2 360
144 156 174 207 238 241 238 238 242 249 239 254 273 281 290 293 307 310 310 312 321 325 331 336 342 347 345 340 343 346 347 349 351 347 347 350 355 358 0 1 3 4 3 357